STARLINK-2521 (48648 NORAD) Tracking and Keplerian Element Data

This shows tracking and keplerian element data for the satellite.

Feedback or suggestion? Click here.




ElementValue
Catalog48648
NameSTARLINK-2521
Epoch Orbit1080
Epoch Day211.14431757
Epoch Year2021
RAAN119.3324
Inclination53.0557
Eccentricity0.000198
Argument of Perigee77.4939
Mean Anonmoly282.6271
Mean Motion15.06395465
Decay Rate-4.53E-06
L11 48648U 21044L 21211.14431757 -.00000453 00000-0 -11498-4 0 9991
L22 48648 53.0557 119.3324 0001980 77.4939 282.6271 15.06395465 10808

Live tracking and technical data element details for STARLINK-2521 (NORAD 48648). STARLINK-2521 can be tracked NOW for your location showing map with azimuth and elevation plus other details from your city location.

Track the satellite on the map from your city or location and see movement details for azimuth, elevation, latitude, longitude, range, height, and movement on the map or in text.







IsCatalogInMostPopularTable: catalog: 48648, numindb: 13
Update: records affected: 1



GetName: 48648 STARLINK-2521

Hit Count: updated at: Sat, 31 Jul 2021 14:41:05 GMT